TimeEDT,TemperatureF,Dew PointF,Humidity,Sea Level PressureIn,VisibilityMPH,Wind Direction,Wind SpeedMPH,Gust SpeedMPH,PrecipitationIn,Events,Conditions,WindDirDegrees,DateUTC
12:14 AM,57.2,54.5,91,30.22,10.0,Calm,Calm,-,N/A,,Clear,0,2013-08-17 04:14:00
12:33 AM,56.7,54.3,92,30.22,10.0,Calm,Calm,-,N/A,,Clear,0,2013-08-17 04:33:00
12:53 AM,57.2,54.5,91,30.22,10.0,Calm,Calm,-,N/A,,Clear,0,2013-08-17 04:53:00
1:14 AM,56.1,54.0,92,30.23,7.0,Calm,Calm,-,N/A,,Clear,0,2013-08-17 05:14:00
1:33 AM,55.8,53.8,93,30.23,7.0,Calm,Calm,-,N/A,,Clear,0,2013-08-17 05:33:00
1:53 AM,54.3,52.3,93,30.23,7.0,Calm,Calm,-,N/A,,Clear,0,2013-08-17 05:53:00
2:14 AM,53.6,51.3,92,30.23,7.0,Calm,Calm,-,N/A,,Clear,0,2013-08-17 06:14:00
2:33 AM,53.4,51.3,92,30.23,7.0,Calm,Calm,-,N/A,,Clear,0,2013-08-17 06:33:00
2:53 AM,53.1,51.1,93,30.23,10.0,Calm,Calm,-,N/A,,Clear,0,2013-08-17 06:53:00
3:14 AM,53.4,51.3,92,30.23,10.0,Calm,Calm,-,N/A,,Clear,0,2013-08-17 07:14:00
3:33 AM,53.1,50.9,92,30.22,10.0,Calm,Calm,-,N/A,,Clear,0,2013-08-17 07:33:00
3:53 AM,53.1,51.1,93,30.22,10.0,Calm,Calm,-,N/A,,Clear,0,2013-08-17 07:53:00
4:14 AM,52.5,50.5,93,30.23,10.0,Calm,Calm,-,N/A,,Clear,0,2013-08-17 08:14:00
4:33 AM,53.1,51.1,93,30.23,10.0,Calm,Calm,-,N/A,,Clear,0,2013-08-17 08:33:00
4:53 AM,52.3,50.4,93,30.23,10.0,Calm,Calm,-,N/A,,Clear,0,2013-08-17 08:53:00
5:13 AM,51.8,50.0,94,30.24,10.0,Calm,Calm,-,N/A,,Clear,0,2013-08-17 09:13:00
5:33 AM,52.2,50.2,93,30.24,7.0,Calm,Calm,-,N/A,,Clear,0,2013-08-17 09:33:00
5:54 AM,52.0,50.2,94,30.24,10.0,Calm,Calm,-,N/A,,Clear,0,2013-08-17 09:54:00
6:13 AM,52.0,50.0,93,30.25,10.0,Calm,Calm,-,N/A,,Clear,0,2013-08-17 10:13:00
6:33 AM,51.4,49.5,93,30.25,5.0,Calm,Calm,-,N/A,,Scattered Clouds,0,2013-08-17 10:33:00
6:54 AM,51.6,49.8,94,30.26,7.0,Calm,Calm,-,N/A,,Scattered Clouds,0,2013-08-17 10:54:00
7:13 AM,52.7,51.1,94,30.26,5.0,Calm,Calm,-,N/A,,Clear,0,2013-08-17 11:13:00
7:33 AM,52.7,50.7,93,30.26,7.0,Calm,Calm,-,N/A,,Clear,0,2013-08-17 11:33:00
7:53 AM,54.5,52.7,94,30.26,7.0,Calm,Calm,-,N/A,,Clear,0,2013-08-17 11:53:00
8:13 AM,56.5,54.1,92,30.27,10.0,Calm,Calm,-,N/A,,Clear,0,2013-08-17 12:13:00
8:34 AM,58.1,55.4,91,30.27,10.0,Calm,Calm,-,N/A,,Clear,0,2013-08-17 12:34:00
8:53 AM,58.6,55.6,90,30.27,10.0,Calm,Calm,-,N/A,,Clear,0,2013-08-17 12:53:00
9:13 AM,61.5,57.4,86,30.27,10.0,Calm,Calm,-,N/A,,Clear,0,2013-08-17 13:13:00
9:34 AM,64.2,56.8,77,30.27,10.0,Calm,Calm,-,N/A,,Clear,0,2013-08-17 13:34:00
9:53 AM,66.2,57.4,73,30.27,10.0,ENE,3.5,-,N/A,,Clear,70,2013-08-17 13:53:00
10:13 AM,68.0,57.4,69,30.27,10.0,ESE,3.5,-,N/A,,Clear,110,2013-08-17 14:13:00
10:34 AM,69.3,57.0,65,30.27,10.0,Calm,Calm,-,N/A,,Clear,0,2013-08-17 14:34:00
10:53 AM,71.6,56.1,58,30.27,10.0,East,4.6,-,N/A,,Clear,90,2013-08-17 14:53:00
11:13 AM,72.3,54.9,54,30.27,10.0,East,4.6,-,N/A,,Clear,100,2013-08-17 15:13:00
11:33 AM,72.9,54.1,52,30.27,10.0,Calm,Calm,-,N/A,,Clear,0,2013-08-17 15:33:00
11:53 AM,73.6,50.9,45,30.27,10.0,ESE,5.8,-,N/A,,Clear,120,2013-08-17 15:53:00
12:14 PM,74.7,50.9,43,30.27,10.0,ESE,5.8,-,N/A,,Clear,120,2013-08-17 16:14:00
12:33 PM,74.7,51.6,44,30.27,10.0,East,3.5,-,N/A,,Clear,90,2013-08-17 16:33:00
12:53 PM,75.4,52.2,44,30.26,10.0,East,6.9,-,N/A,,Clear,80,2013-08-17 16:53:00
1:13 PM,75.7,51.6,43,30.26,10.0,ESE,4.6,-,N/A,,Clear,120,2013-08-17 17:13:00
1:33 PM,76.3,52.7,44,30.25,10.0,East,5.8,-,N/A,,Scattered Clouds,80,2013-08-17 17:33:00
1:54 PM,76.1,51.6,42,30.25,10.0,ESE,6.9,-,N/A,,Clear,120,2013-08-17 17:54:00
2:13 PM,76.3,51.4,42,30.24,10.0,Calm,Calm,-,N/A,,Clear,0,2013-08-17 18:13:00
2:33 PM,76.1,52.9,44,30.24,10.0,ENE,6.9,-,N/A,,Scattered Clouds,70,2013-08-17 18:33:00
2:54 PM,76.3,53.4,45,30.23,10.0,East,6.9,-,N/A,,Scattered Clouds,80,2013-08-17 18:54:00
3:13 PM,76.6,53.6,45,30.23,10.0,ESE,6.9,-,N/A,,Scattered Clouds,120,2013-08-17 19:13:00
3:33 PM,77.2,52.9,43,30.22,10.0,NE,4.6,-,N/A,,Mostly Cloudy,40,2013-08-17 19:33:00
3:54 PM,76.1,52.9,44,30.22,10.0,East,3.5,-,N/A,,Scattered Clouds,80,2013-08-17 19:54:00
4:13 PM,77.5,53.4,43,30.22,10.0,ESE,3.5,-,N/A,,Clear,110,2013-08-17 20:13:00
4:33 PM,76.6,53.8,45,30.22,10.0,Calm,Calm,-,N/A,,Clear,0,2013-08-17 20:33:00
4:54 PM,77.2,53.6,44,30.21,10.0,East,6.9,-,N/A,,Scattered Clouds,100,2013-08-17 20:54:00
5:13 PM,77.7,54.7,45,30.21,10.0,East,3.5,-,N/A,,Scattered Clouds,80,2013-08-17 21:13:00
5:33 PM,77.2,53.2,43,30.21,10.0,ESE,5.8,-,N/A,,Clear,110,2013-08-17 21:33:00
5:54 PM,76.8,53.2,44,30.21,10.0,East,5.8,-,N/A,,Scattered Clouds,100,2013-08-17 21:54:00
6:13 PM,76.6,53.6,45,30.21,10.0,East,5.8,-,N/A,,Scattered Clouds,100,2013-08-17 22:13:00
6:34 PM,76.1,54.1,46,30.21,10.0,East,5.8,-,N/A,,Scattered Clouds,90,2013-08-17 22:34:00
6:53 PM,76.3,54.5,47,30.20,10.0,ESE,4.6,-,N/A,,Scattered Clouds,120,2013-08-17 22:53:00
7:13 PM,76.1,54.5,47,30.20,10.0,East,5.8,-,N/A,,Scattered Clouds,100,2013-08-17 23:13:00
7:34 PM,74.8,55.2,50,30.20,10.0,East,4.6,-,N/A,,Clear,100,2013-08-17 23:34:00
7:53 PM,74.1,55.4,52,30.20,10.0,ESE,3.5,-,N/A,,Clear,110,2013-08-17 23:53:00
8:13 PM,72.7,56.3,56,30.20,10.0,ESE,3.5,-,N/A,,Clear,110,2013-08-18 00:13:00
8:34 PM,71.6,55.9,58,30.20,10.0,Calm,Calm,-,N/A,,Clear,0,2013-08-18 00:34:00
8:53 PM,70.0,56.1,61,30.21,10.0,Calm,Calm,-,N/A,,Clear,0,2013-08-18 00:53:00
9:13 PM,67.1,57.0,70,30.21,10.0,Calm,Calm,-,N/A,,Clear,0,2013-08-18 01:13:00
9:34 PM,65.3,57.2,75,30.22,10.0,Calm,Calm,-,N/A,,Clear,0,2013-08-18 01:34:00
9:53 PM,63.9,57.4,79,30.22,10.0,Calm,Calm,-,N/A,,Clear,0,2013-08-18 01:53:00
10:13 PM,63.1,56.8,80,30.22,10.0,Calm,Calm,-,N/A,,Clear,0,2013-08-18 02:13:00
10:34 PM,62.6,57.6,84,30.22,10.0,Calm,Calm,-,N/A,,Clear,0,2013-08-18 02:34:00
10:53 PM,60.8,56.7,86,30.22,10.0,Calm,Calm,-,N/A,,Clear,0,2013-08-18 02:53:00
11:14 PM,61.7,56.8,84,30.21,10.0,Calm,Calm,-,N/A,,Clear,0,2013-08-18 03:14:00
11:33 PM,61.0,55.9,83,30.21,10.0,Calm,Calm,-,N/A,,Clear,0,2013-08-18 03:33:00
11:53 PM,59.9,55.6,86,30.21,10.0,Calm,Calm,-,N/A,,Clear,0,2013-08-18 03:53:00